Other Public Products
Issued by NWS Grand Forks, ND

Home | Current Version | Previous Version | Text Only | Print | Product List | Glossary Off
Versions: 1 2 3 4 5 6 7 8 9 10 11 12 13 14 15 16 17 18 19 20 21 22 23 24 25 26 27 28 29 30 31 32 33 34 35 36 37 38 39 40 41 42 43 44 45 46 47 48 49 50

000
FPUS83 KFGF 011410
OPUFGF
PRAIRIE TO PINES WEATHER ROUNDUP
NATIONAL WEATHER SERVICE EASTERN NORTH DAKOTA/GRAND FORKS ND
900 AM CDT WED APR 01 2015

 **SATELLITE DATA USED TO AUGMENT SKY COVER AT AUTOMATED STATIONS**
 *****  WEATHER ACROSS EASTERN NORTH DAKOTA  *****

CITY           SKY/WX    TMP DP  RH WIND       PRES   REMARKS
GRAND FORKS    PTSUNNY   49  33  54 SE17      29.41F
GRAND FORKS AF PTSUNNY   45  31  59 SE10      29.40F
GRAND CITY NWS   N/A     48 N/A N/A SE13        N/A
BUXTON         NOT AVBL
DEVILS LAKE    CLOUDY    45  34  65 S6G32     29.37R
FARGO          SUNNY     55  34  45 SE18G30   29.44F
WAHPETON ARPT  MOSUNNY   52  32  46 SE16      29.46F
$$

 *****  WEATHER ACROSS CENTRAL AND WESTERN NORTH DAKOTA  *****

CITY           SKY/WX    TMP DP  RH WIND       PRES   REMARKS
JAMESTOWN      CLOUDY    50  34  54 S21G26    29.35F
BISMARCK       PTSUNNY   52  38  58 NW21G31   29.44R
MINOT          MOSUNNY   46  35  65 NW26G35   29.41R
MINOT AFB      MOSUNNY   43  40  88 NW23G35   29.40R
GARRISON         N/A     49  40  71 NW24G32   29.43R
WILLISTON      MOSUNNY   47  38  71 W13G21    29.56R
DICKINSON      MOSUNNY   50  37  61 NW24G31   29.53R
HETTINGER      MOSUNNY   51  37  58 NW23G35   29.56R
$$

 *****  OTHER OBSERVATIONS NORTHEAST NORTH DAKOTA  *****

CITY           SKY/WX    TMP DP  RH WIND       PRES   REMARKS
WALHALLA         N/A     41  34  75 SE12      29.39F
LANGDON        NOT AVBL
CAVALIER       FAIR      41  34  75 SE8       29.42F
GRAFTON        NOT AVBL
CANDO          NOT AVBL
FORT TOTTEN      N/A     47  34  60 SW13      29.95
ROLLA          FAIR      41  32  70 S9        29.35F
RUGBY          NOT AVBL
 ***** THE ABOVE OBSERVATIONS ARE NON NWS ARE NOT QUALITY
        CONTROLLED AND MAY MIS-REPORT RAIN FOR SNOW...
$$

 *****  OTHER OBSERVATIONS SOUTHEAST NORTH DAKOTA *****

CITY           SKY/WX    TMP DP  RH WIND       PRES   REMARKS
COOPERSTOWN    NOT AVBL
VALLEY CITY    FAIR      46  36  66 S13       29.39F
OAKES            N/A     55  37  50 S16       29.40F
GWINNER        SUNNY     55  36  47 S10         N/A
BUFFALO        NOT AVBL
WYNDMERE       NOT AVBL
 ***** THE ABOVE OBSERVATIONS ARE NON NWS ARE NOT QUALITY
       CONTROLLED AND MAY MIS-REPORT RAIN FOR SNOW...
$$

  *****  WEATHER ACROSS NORTHERN MINNESOTA  *****

CITY           SKY/WX    TMP DP  RH WIND       PRES   REMARKS
FLAG ISLAND    MOSUNNY   37  30  75 SE13G20   29.57F
WARROAD        CLOUDY    39  32  75 E9G18     29.54F
ROSEAU         CLOUDY    45  32  61 SE14G23   29.51F
HALLOCK        PTSUNNY   46  30  53 SE15G22   29.44F
THF RVR FALLS  PTSUNNY   46  34  61 SE16      29.48F
HALSTAD        NOT AVBL
FOSSTON        MOSUNNY   46  32  57 SE13      29.50F
BAUDETTE       PTSUNNY   40  30  67 SE13      29.58F
WASKISH        MOSUNNY   45  32  61 SE14G23   29.59F
CROOKSTON      PTSUNNY   54  34  47 S21       29.45F
$$
  *****  WEATHER ACROSS CENTRAL AND WEST MINNESOTA  *****

CITY           SKY/WX    TMP DP  RH WIND       PRES   REMARKS
BEMIDJI        SUNNY     42  30  61 SE16G23   29.57F
PARK RAPIDS    MOSUNNY   48  28  46 SE16      29.58F
WADENA         MOSUNNY   46  30  53 SE15      29.56F
DETROIT LAKES  SUNNY     46  32  57 SE18G24   29.52F
MOORHEAD       SUNNY     54  36  50 SE16G22   29.46F
FERGUS FALLS   MOSUNNY   55  30  38 SE20G25   29.51F
ELBOW LAKE     FAIR      55  35  46 SE22      29.51F
MORRIS MN      MOSUNNY   52  37  58 SE17      29.52F
STAPLES        PTSUNNY   46  28  49 SE9       29.60F
WHEATON        PTSUNNY   48  36  61 SE16      29.49F
$$
  *****  WEATHER ELSEWHERE ACROSS MINNESOTA  *****

CITY           SKY/WX    TMP DP  RH WIND       PRES   REMARKS
DULUTH         PTSUNNY   32  29  88 E20G25    29.79F WCI  20
INTRNTL FALLS  MOSUNNY   39  30  70 SE12      29.67F
ELY            MOSUNNY   36  28  75 SE13G23   29.76F
CLOQUET        MOSUNNY   36  30  80 SE9       29.78F
BRAINERD       MOSUNNY   47  30  51 SE9G21    29.66F
HIBBING        NOT AVBL
ALEXANDRIA     MOSUNNY   49  34  56 SE15      29.57F
SAINT CLOUD    MOSUNNY   50  33  52 SE14      29.68F
MINNEAPOLIS    MOSUNNY   51  35  54 SE13      29.76F
$$

  *****  WEATHER ACROSS SOUTH DAKOTA  *****

CITY           SKY/WX    TMP DP  RH WIND       PRES   REMARKS
SIOUX FALLS    PTSUNNY   61  34  36 S29G39    29.63F
BROOKINGS      MOSUNNY   61  37  41 S30G48    29.58F
WATERTOWN      MOSUNNY   60  37  42 S28G37    29.50F
HURON          CLOUDY    59  34  39 S20G28    29.47F
SISSETON         N/A     60  36  40 SW28G39   29.41F
ABERDEEN       CLOUDY    56  34  43 S20       29.42F
MITCHELL       CLOUDY    62  37  39 S14G23    29.53F
PIERRE         CLOUDY    60  26  27 W14       29.45R
MOBRIDGE       CLOUDY    55  30  38 W13       29.42R
RAPID CITY     MOSUNNY   53  35  50 NW35G41   29.61R
$$

  *****  SOME WEATHER IN NEARBY STATES *****

CITY           SKY/WX    TMP DP  RH WIND       PRES   REMARKS
GLASGOW MT     MOSUNNY   43  26  51 W21       29.67R
GREAT FALLS MT CLEAR     35  12  38 SW17      29.82S WCI  25
CHEYENNE WY    CLOUDY    51  23  33 NW5       29.81R
SCOTTSBLUFF NE CLOUDY    50  27  40 W10G21    29.69R
OMAHA NE       MOSUNNY   60  33  36 S21G30    29.79F
DES MOINES IA  MOSUNNY   63  33  32 S15       29.86F
DAVENPORT IA   SUNNY     57  33  40 S12       29.97F
CHICAGO IL     MOSUNNY   48  37  65 S5        30.05R
EAU CLAIRE WI  SUNNY     47  31  53 SE10      29.88S
LA CROSSE WI   SUNNY     50  33  52 SE7       29.91F
$$

  *****  SOME NATIONAL WEATHER *****

CITY           SKY/WX    TMP DP  RH WIND       PRES   REMARKS
LA GUARDIA NY  CLOUDY    36  17  46 NW10      30.08R
RALEIGH NC     MOSUNNY   52  36  54 NE7       30.10R
ATLANTA GA     MOSUNNY   62  55  77 N9        30.06R
NEW ORLEANS LA MOSUNNY   71  66  84 S3        30.08R
OKLAHOMA CITY  PTSUNNY   62  56  80 S13       29.84F
ALBUQUERQUE NM MOSUNNY   51  29  42 SE7       30.02R
SALT LAKE CITY PTCLDY    40  23  50 NW8       30.11R
LOS ANGELES CA PTCLDY    56  53  90 E5        29.97R
BOISE ID       MOCLDY    37  29  72 NW8       30.20R
SEATTLE WA     MOCLDY    43  38  82 SW7       30.27R
$$

*** WEATHER ACROSS MANITOBA...SASKATCHEWAN AND ONTARIO ***
                ***ONTARIO***

CITY           SKY/WX    TMP DP  RH WIND       PRES   REMARKS
GERALDTON      MOSUNNY   23  16  74 CALM      29.98S
THUNDER BAY    LGT SNOW  27  27 100 E8        29.99F FOG     WCI  18
SIOUX LOOKOUT  CLOUDY    32  30  93 S10       29.77F WCI  24
TORONTO        MOSUNNY   36   7  30 E6        30.15S
BIG TROUT LK   MOSUNNY   19   9  63 S3        29.84F
PICKLE LAKE    CLOUDY    27  25  93 SE7       29.84F WCI  19
DRYDEN         CLOUDY    34  30  86 SE14G20   29.72F WCI  24
KENORA         PTSUNNY   39  30  70 SE15      29.62F
$$
                *** MANITOBA***

CITY           SKY/WX    TMP DP  RH WIND       PRES   REMARKS
BRANDON        PTSUNNY   37  32  81 NE7       29.41R
DAUPHIN        PTSUNNY   34  34 100 W7        29.42S
ISLAND LAKE    PTSUNNY   30  25  80 SE7       29.72F WCI  23
PILOT MOUND      N/A     41  32  70 SE16        N/A
THE PAS        PTSUNNY   34  30  86 E16G23    29.46F WCI  23
THOMPSON       CLOUDY    27  25  93 E10       29.74R WCI  17
WINNIPEG       PTSUNNY   43  30  61 E16G24    29.45F
LYNN LAKE      LGT SNOW  16  12  86 E13G23    29.71S WCI   2
CHURCHILL      PTSUNNY   -2  -6  84 N14       30.01R WCI -21
GILLAM         SNOW      14  10  85 NE12      29.83S VSB 1/2 WCI   0
$$
                ***SASKATCHEWAN***

CITY           SKY/WX    TMP DP  RH WIND       PRES   REMARKS
ESTEVAN        MOSUNNY   45  41  87 W13       29.46R
KINDERSLEY     PTCLDY    36  25  64 W20G25    29.57R
LLOYDMINSTER   CLOUDY    36  30  80 W18G29    29.43F
PRINCE ALBERT  CLOUDY    34  32  93 W8        29.37R
REGINA         PTSUNNY   41  37  87 NW16G25   29.51R
YORKTON        LGT RAIN  39  37  93 SW7       29.41F


USA.gov is the U.S. government's official web portal to all federal, state and local government web resources and services.